Theta_e
314 314 315 315 314 313 313 309 310 308 308 310 309 306 305 306 305 306 306 304 304 305 305 306 307 309 312 313 313 312 315 314 314 314 314 312 314 311 312 316 316 318 318 317 324
314 315 315 314 314 313 314 308 307 307 307 309 309 306 305 305 306 305 303 303 304 305 306 309 310 310 311 312 313 315 315 314 311 311 312 311 311 310 312 314 316 318 318 314 318
314 314 314 314 313 313 313 309 306 305 307 308 308 306 305 306 308 304 303 303 304 305 306 307 308 310 311 311 312 313 314 311 310 309 308 310 310 309 311 313 313 313 314 316 319
313 314 312 313 313 312 312 311 305 304 306 308 307 306 307 308 312 304 303 303 304 306 307 308 309 310 311 311 309 311 309 310 309 307 307 309 308 309 309 311 308 311 311 317 319
312 313 312 313 312 312 312 308 305 305 305 307 307 307 307 306 304 303 303 303 305 306 307 308 310 311 312 310 310 311 309 308 307 307 307 307 309 308 308 307 308 314 312 318 320
313 311 311 313 311 312 311 308 307 305 305 307 307 308 308 306 303 304 303 304 305 306 307 308 308 310 310 309 311 309 309 308 308 308 307 308 309 307 308 305 309 314 317 319 320
311 312 312 310 312 308 308 310 309 305 306 306 307 307 306 304 304 304 303 303 305 306 307 306 306 309 310 310 307 308 310 309 309 309 309 307 311 309 308 305 308 312 316 319 320
311 311 311 312 310 309 309 310 307 305 306 306 306 307 305 304 304 304 303 304 305 306 306 306 306 308 308 307 309 309 310 313 309 309 308 309 313 309 307 307 307 309 313 316 317
312 312 312 311 309 309 307 310 308 307 307 308 308 309 306 305 306 305 305 305 305 305 305 305 307 309 310 311 313 316 316 313 313 308 309 311 313 311 308 308 309 308 307 311 312
311 309 309 309 309 308 306 306 306 310 307 307 308 311 306 305 305 307 307 306 306 306 310 309 311 313 312 315 316 313 313 313 313 309 308 311 312 312 311 310 309 309 308 306 306
311 310 306 306 307 309 308 309 309 307 305 305 305 306 305 305 306 306 307 307 309 311 314 310 315 313 309 309 309 311 312 312 311 307 306 311 310 309 309 309 309 309 309 307 306
311 310 306 306 309 309 308 306 306 306 305 304 304 305 304 305 307 306 307 309 309 313 312 315 311 307 307 308 309 310 312 312 310 307 305 306 305 309 305 304 304 304 305 305 305
310 309 307 306 307 307 306 306 305 304 308 304 304 304 303 304 304 304 306 308 309 313 311 312 307 305 306 307 310 308 308 307 306 305 306 304 309 306 303 303 303 302 302 303 303
310 309 307 307 307 306 306 305 305 304 310 306 306 305 303 304 306 303 304 306 308 306 308 307 305 306 307 305 305 311 303 303 305 307 310 303 315 307 305 305 303 302 302 301 302
310 309 308 306 306 306 306 306 306 306 322 305 304 304 303 304 302 304 302 306 306 305 309 305 304 305 305 302 302 306 302 303 303 306 305 306 311 308 304 304 303 301 301 301 300
309 308 308 306 306 306 305 306 303 315 318 305 304 304 305 304 303 304 304 303 303 305 304 303 301 301 301 302 302 301 301 301 303 308 317 299 304 309 304 302 301 300 299 299 299
309 310 308 305 304 304 304 305 314 319 306 311 306 304 304 303 303 303 304 303 305 313 310 304 303 301 299 305 303 303 309 324 323 319 314 295 301 308 302 300 299 299 298 298 297
310 311 307 306 304 304 304 313 318 307 310 303 304 303 304 302 303 303 305 306 303 303 306 309 317 304 299 301 302 301 304 311 308 308 307 294 307 306 300 299 298 297 297 296 296
311 311 307 306 305 304 307 313 312 310 305 305 304 308 308 302 302 304 303 304 301 301 308 308 308 299 297 298 299 303 310 298 302 292 303 306 307 302 300 299 297 296 295 294 294
311 310 306 305 305 304 306 308 307 302 303 304 307 303 311 307 305 305 302 302 302 300 299 301 309 299 298 297 297 301 298 308 307 308 307 309 306 306 303 300 296 294 294 293 292
307 306 307 304 305 305 309 305 302 300 302 304 304 305 303 307 302 304 303 301 301 300 298 300 303 305 297 302 306 301 304 301 302 302 306 304 305 302 300 295 294 293 293 291 291
305 308 305 304 307 300 304 303 299 302 302 303 302 302 305 302 303 303 302 301 300 299 301 300 301 306 312 297 297 298 303 302 304 304 301 300 302 299 295 294 293 292 291 290 290
304 304 304 304 309 303 298 299 301 302 302 302 302 301 300 303 304 301 301 300 300 300 301 300 306 307 310 298 296 298 299 299 298 298 301 302 303 294 296 294 292 291 290 289 289
303 307 302 303 300 306 304 304 303 300 301 300 301 300 300 299 298 301 300 299 299 299 298 298 300 305 305 306 299 300 299 299 299 302 301 303 304 300 297 292 290 289 289 290 288
303 302 299 305 307 301 301 302 301 302 300 300 300 301 302 301 299 298 299 299 299 299 299 299 302 299 299 299 296 297 297 299 298 298 300 299 300 300 293 290 288 288 290 288 286
302 302 299 298 298 301 300 302 302 300 301 301 301 301 301 302 301 300 299 298 299 299 299 298 300 293 297 295 294 294 295 296 296 297 297 297 296 289 288 288 288 288 288 286 286
302 301 301 300 301 303 307 303 301 299 299 299 300 300 300 300 299 298 297 297 297 299 299 298 299 298 300 292 292 299 298 297 296 295 295 294 293 289 288 287 286 287 287 286 285
Wind_Speed
10 11 9 10 11 12 13 13 11 10 9 6 4 5 7 12 13 6 9 9 7 5 6 7 6 5 4 3 3 1 3 3 3 2 4 3 2 3 2 1 2 3 3 3 8
8 8 7 9 11 11 12 13 12 10 8 6 4 3 2 3 8 17 12 9 6 5 6 4 3 4 3 2 3 3 3 3 3 3 3 2 3 3 2 3 2 2 2 2 6
6 7 9 9 9 11 12 14 12 10 8 5 4 3 3 2 2 11 11 8 6 4 5 5 5 4 4 3 4 4 3 3 4 4 3 2 1 2 3 5 1 0 2 5 8
5 7 9 9 9 12 12 12 11 10 8 5 4 6 5 4 2 11 10 8 6 5 4 4 1 2 3 2 4 3 4 4 3 5 4 3 5 4 4 3 1 3 3 6 8
6 7 8 10 13 14 11 9 11 9 8 6 6 6 8 9 8 10 9 8 7 6 4 3 3 2 3 4 4 5 3 3 3 6 6 9 6 8 8 3 4 4 2 5 6
6 8 9 10 13 12 9 9 10 9 9 10 8 8 6 12 12 12 10 8 7 8 7 6 5 6 6 4 4 4 4 4 5 7 6 8 7 5 2 4 4 4 2 3 5
8 9 9 10 10 10 9 9 10 8 8 10 9 17 22 10 15 12 10 10 8 8 6 7 5 4 2 4 3 3 1 3 9 10 4 9 8 6 3 5 5 5 4 3 3
11 10 9 9 8 10 10 8 9 9 9 10 13 12 8 14 14 11 10 10 9 8 8 8 8 6 5 3 2 1 2 1 7 11 4 8 4 2 2 4 6 5 5 5 5
13 11 10 9 8 8 14 9 8 12 13 11 11 7 6 12 15 14 12 10 10 10 10 8 8 6 5 3 2 8 4 7 4 7 6 3 11 0 5 8 10 8 7 6 5
12 13 12 9 6 5 9 18 19 3 5 9 9 5 11 10 15 13 9 9 7 5 4 7 5 7 11 8 4 6 4 5 7 8 9 9 13 11 13 9 11 10 7 6 4
10 12 13 14 12 9 5 4 4 10 32 12 8 7 9 7 14 13 7 7 5 8 4 7 9 9 10 8 5 6 6 8 6 6 11 9 16 17 14 9 11 10 8 5 5
9 11 12 14 14 9 8 11 9 9 12 16 15 11 14 14 6 21 12 5 9 6 2 5 8 8 5 6 4 6 4 6 2 3 7 10 19 7 12 10 10 11 10 7 5
7 10 8 10 10 9 13 13 8 5 2 8 15 14 15 11 9 18 14 6 9 8 13 8 5 6 3 9 5 7 5 6 5 13 5 14 6 8 10 16 15 17 13 10 7
6 9 11 4 5 5 6 6 5 3 4 14 11 11 12 5 4 17 13 4 5 2 5 6 5 5 4 5 7 1 5 5 7 8 3 9 0 7 10 12 18 18 19 18 12
6 8 9 10 5 6 3 4 4 2 4 12 8 10 10 8 9 11 15 7 7 5 2 3 6 7 5 3 5 3 5 4 3 3 4 3 2 6 9 11 14 19 20 19 16
6 8 10 7 8 6 5 5 3 6 4 5 7 10 5 10 7 10 7 7 4 2 11 4 2 4 5 5 3 7 4 3 2 1 1 2 4 2 4 6 10 17 20 20 18
5 8 10 10 7 7 5 3 5 6 1 4 4 6 4 6 6 9 5 10 5 4 6 0 3 2 5 4 2 7 3 3 2 2 2 1 4 4 5 8 12 15 18 18 18
4 6 9 11 11 9 3 3 8 1 3 1 3 5 5 9 5 8 3 4 9 4 1 3 2 3 8 4 3 4 2 2 5 4 6 2 5 2 8 13 12 15 15 17 19
4 5 7 10 11 9 2 5 5 4 1 1 2 2 3 2 1 3 5 3 5 8 4 4 1 3 4 2 2 2 0 2 2 1 3 3 4 8 8 6 15 18 18 19 19
4 6 6 10 9 5 5 3 1 0 1 1 1 1 1 3 2 3 2 1 1 3 2 2 4 1 1 1 4 1 2 1 2 3 5 4 4 7 6 2 9 17 16 19 18
6 5 6 10 7 4 4 3 2 2 1 3 1 2 2 1 1 1 1 2 0 1 2 2 0 1 1 4 3 2 1 1 2 2 4 5 3 1 7 4 5 8 13 21 24
5 3 7 9 4 5 2 1 2 2 1 1 2 1 2 1 2 2 2 1 1 1 3 2 2 5 1 3 2 1 2 4 3 2 3 4 8 5 7 3 4 15 22 19 22
5 3 4 6 3 2 1 1 1 4 3 3 2 1 1 1 3 1 2 2 1 1 3 1 1 5 3 2 2 3 4 4 1 2 9 7 5 4 4 8 11 15 21 19 27
4 4 2 3 5 6 5 3 3 3 2 2 1 2 2 0 1 3 2 0 1 1 1 0 3 5 7 3 3 5 7 9 7 5 9 14 15 6 7 9 18 24 22 18 23
2 1 2 2 2 3 1 5 3 4 3 5 1 7 3 2 1 3 3 2 3 3 2 2 5 3 11 7 4 8 14 11 13 14 9 18 12 6 6 8 16 23 16 20 28
1 1 1 1 2 3 2 4 5 1 6 3 4 3 7 4 2 2 3 3 3 4 3 1 2 2 5 4 7 12 22 14 14 16 16 19 20 6 9 12 16 21 17 19 26
5 4 1 1 0 1 2 3 5 6 4 0 5 4 5 6 4 2 2 1 1 2 6 2 1 2 5 5 10 8 7 8 4 5 4 5 4 10 8 15 23 20 18 23 39
Wind_Direction
352 348 355 3 0 3 7 7 8 9 17 22 37 68 93 71 53 51 28 12 26 55 86 85 83 94 80 75 50 343 222 169 113 175 86 18 283 35 2 308 77 47 37 152 178
2 10 8 4 5 4 9 10 11 10 17 25 41 85 108 84 58 42 27 19 24 48 82 75 82 54 77 60 30 318 275 67 45 54 68 36 331 347 291 192 171 141 8 257 215
15 14 7 7 359 2 6 7 10 11 21 33 50 69 91 104 54 9 16 27 36 56 84 99 103 61 71 47 21 19 34 115 62 29 14 8 237 328 286 239 59 245 241 220 208
15 10 1 357 355 358 354 -0 12 14 26 42 72 83 68 56 14 355 19 35 46 66 82 60 17 80 96 84 30 121 51 19 38 10 350 358 317 277 262 359 291 291 245 222 200
17 13 1 358 356 354 356 12 20 28 35 54 80 94 77 68 21 11 26 41 57 58 47 22 45 60 100 97 86 64 96 60 28 3 350 330 306 301 278 287 318 308 243 213 202
21 5 2 4 1 9 21 20 28 42 55 66 70 82 60 76 21 20 29 46 67 69 41 38 47 69 81 62 26 71 88 72 30 6 358 337 300 328 77 341 328 316 261 215 205
24 17 13 7 17 24 29 28 31 54 78 86 68 82 69 48 29 25 38 53 65 69 59 69 69 15 61 113 80 99 150 107 32 360 11 338 260 248 345 328 302 270 250 227 229
19 13 17 26 41 39 24 32 42 63 72 84 78 70 72 36 36 37 47 50 61 64 71 61 59 51 43 99 92 326 245 256 45 11 9 341 328 35 274 297 290 268 249 240 239
31 39 46 52 49 54 60 56 68 73 71 66 57 84 52 30 33 41 46 53 61 60 51 43 56 59 20 327 113 25 22 16 107 39 327 316 306 15 260 285 289 276 262 250 241
50 53 44 30 20 44 92 69 67 88 85 48 41 68 25 357 25 33 39 47 39 22 35 37 51 62 35 21 57 7 10 354 356 3 340 301 280 306 303 276 288 289 277 272 276
60 49 41 41 54 105 92 40 44 41 61 57 38 65 11 4 44 13 32 40 15 51 45 36 58 42 20 19 8 342 343 340 14 20 328 300 306 313 326 335 333 304 287 293 296
53 45 53 61 71 65 78 82 90 124 69 50 51 40 29 32 4 20 41 45 37 52 16 74 60 14 356 8 353 3 345 2 294 324 316 324 310 47 37 34 28 21 16 358 314
50 38 41 67 77 87 72 79 88 86 53 23 28 22 10 25 28 3 24 24 44 41 45 66 23 340 345 28 359 44 21 357 319 315 244 323 112 96 74 73 61 43 30 14 357
48 40 38 48 50 52 52 52 40 58 78 357 359 13 358 9 36 10 18 37 50 110 48 64 12 10 35 66 355 296 2 319 319 338 320 13 235 131 111 77 49 37 28 20 6
43 27 39 48 49 46 38 34 13 46 56 340 347 347 3 47 330 13 21 43 53 41 267 44 10 17 47 11 346 7 330 318 326 303 317 29 268 106 157 61 44 39 33 24 13
32 30 32 41 40 22 359 344 15 42 49 339 335 358 20 19 20 345 19 46 69 18 55 81 44 27 350 315 318 326 307 287 242 190 255 52 356 54 39 22 50 35 24 18 12
39 18 18 21 11 2 356 38 40 71 323 332 339 354 343 359 7 14 40 45 35 30 19 177 53 31 4 310 193 353 318 330 271 270 302 13 272 344 46 69 57 26 15 13 10
359 4 11 5 1 358 24 55 67 192 252 356 322 323 33 359 33 351 356 57 52 2 55 18 251 14 355 33 338 14 17 19 297 291 326 178 237 132 96 108 58 33 22 15 12
304 335 349 1 355 359 51 58 177 184 143 212 213 47 358 45 341 357 43 33 16 11 11 341 255 111 42 352 329 54 93 41 110 118 256 260 249 124 121 79 20 22 22 19 15
311 323 324 347 353 11 71 138 174 18 153 225 153 268 281 337 337 29 4 82 64 42 38 63 290 93 136 261 58 324 91 204 176 283 276 210 258 280 184 69 3 17 15 9 15
331 323 329 343 349 29 98 160 205 199 320 321 200 174 231 256 298 250 233 140 159 90 40 107 302 189 173 195 156 149 192 217 315 253 275 298 245 359 108 59 356 347 4 14 13
332 322 331 347 358 44 78 93 114 155 205 297 304 10 257 185 271 290 306 302 78 46 341 59 312 275 256 115 356 278 264 227 250 230 247 300 275 87 104 70 10 5 5 2 359
315 279 330 3 94 50 41 103 169 158 210 200 230 300 46 285 312 275 294 58 92 319 353 65 241 302 221 165 163 225 206 212 0 299 241 258 263 181 64 46 19 0 353 353 354
323 338 23 61 95 139 153 182 191 217 183 189 205 159 172 199 144 316 284 69 214 248 253 230 267 243 264 343 347 255 226 218 208 253 271 241 269 236 346 5 356 348 350 352 347
330 357 313 303 48 89 66 153 147 197 220 198 238 226 182 189 238 242 233 241 203 189 219 250 257 278 273 274 245 260 263 229 214 238 255 273 280 311 11 343 331 334 335 341 344
271 199 78 20 359 144 126 213 210 201 158 216 218 186 186 207 236 258 202 224 273 182 216 191 283 9 278 319 288 269 268 259 234 252 259 271 282 31 334 332 331 329 327 329 335
224 223 173 211 198 227 255 197 202 162 199 68 215 161 221 246 264 249 266 243 308 213 201 230 281 330 269 356 319 269 266 228 188 196 223 235 21 357 340 334 326 316 322 327 332